WESTFORD NEEDLES, 19030

Orbit data source: Space-Track

WESTFORD NEEDLES, 19030 is space debris in LEO originally from a launch on Thu, 09 May 1963 UTC launched from the Air Force Western Test Range (AFWTR). Debris objects in space refer to the collection of defunct objects orbiting the Earth. Examples of debris include non-operational satellites, rocket bodies, and fragments generated from explosions, collisions, or faulty payload assembly.

Loading next visibility...
Identifier
19030, 1963-014DY
Orbit
LEO
Country
Flag of USUS
Related business
Manufacturer
Unknown
Mission
Spacecraft
Bus & Motor
Unknown
Mass
Unknown
Launch date (UTC)
1963-05-09 (63 years ago)
Launch vehicle
Unknown
Launch site
Air Force Western Test Range (AFWTR)
Object type
Payload
Rocket body
Debris
Shape & HBR
Unknown shape, 1.1 m
Radar Cross Section
Medium (>0.1 m² and <1 m²)

Expand to show TLE details & history
Last TLE update: 6 days ago

TLE from 6 days ago
0 WESTFORD NEEDLES
1 19030U 63014DY  26132.68372145 -.00000368  00000-0 -17508+0 0  9996
2 19030  87.3694 234.5170 0021879 106.3332 253.9929  8.64533717385895
Epoch: 2026-05-12T16:24Z
TLE epoch observation values (Epoch: 2026-05-12T16:24:33.533Z)
Latitude
-0.00009°
Longitude
117.9227°
Altitude
3,658.133 km
Speed
6.301 km/s
True Right ascension
15h 38m 04s
True Declination
0° 00' 00"
Sunlit
Object was in full shadow at epoch
Visualization orbit readout
Latitude
Unknown
Longitude
Unknown
Altitude
Unknown
Speed
Unknown
Apparent Right ascension
Unknown
Apparent Declination
Unknown
Sunlit
N/A
Visualization observer readout
Local Sidereal Time
08:35:41
Azimuth
Unknown
Elevation
Unknown
Doppler factor
Unknown
Orbital elements
Apogee altitude
3,669.613 km
Perigee altitude
3,625.742 km
Semi-major axis
10,025.814 km
Eccentricity
0.00219
Inclination
87.3694°
RAAN
234.517°
Arg. of periapsis
106.3332°
True anomaly
253.75209°
Mean anomaly
253.9929°
Eccentric anomaly
253.87248°
Mean motion
2.16204 °/min
Orbital period
166.51 mins
BSTAR
-0.17508
Loading maneuver chart data...
Computing Atmospheric mass density...

Documentation

Showing up to 5 results
|